MDT,Max TemperatureF,Mean TemperatureF,Min TemperatureF,Max Dew PointF,MeanDew PointF,Min DewpointF,Max Humidity, Mean Humidity, Min Humidity, Max Sea Level PressureIn, Mean Sea Level PressureIn, Min Sea Level PressureIn, Max VisibilityMiles, Mean VisibilityMiles, Min VisibilityMiles, Max Wind SpeedMPH, Mean Wind SpeedMPH, Max Gust SpeedMPH,PrecipitationIn, CloudCover, Events, WindDirDegrees
2013-8-1,91,78,64,64,60,55,78,60,36,30.31,30.22,30.13,10,10,8,29,7,39,0.00,1,Thunderstorm,172
2013-8-2,96,80,64,61,55,50,83,46,22,30.14,30.07,29.99,10,10,9,22,8,26,0.00,0,,211
2013-8-3,98,82,66,61,54,48,60,39,19,30.18,30.10,30.05,10,10,10,16,8,21,0.00,1,Thunderstorm,184
2013-8-4,93,80,68,55,53,48,60,39,24,30.22,30.16,30.10,10,10,10,18,8,24,0.00,0,,175
2013-8-5,95,80,66,61,53,48,64,41,21,30.18,30.10,30.01,10,10,10,18,9,24,0.00,0,,188
2013-8-6,100,83,66,57,51,45,64,35,17,30.05,30.01,29.94,10,10,10,16,8,22,0.00,1,,230
2013-8-7,96,80,64,61,55,50,73,49,22,30.08,30.03,29.96,10,10,2,25,8,38,0.00,2,Thunderstorm,132
2013-8-8,87,76,62,61,57,54,83,59,33,30.15,30.04,29.99,10,10,5,22,8,28,0.00,2,,30
2013-8-9,84,72,60,57,55,54,82,58,37,30.32,30.19,30.12,10,10,10,18,13,24,0.00,0,,34
2013-8-10,84,73,62,61,58,54,83,62,40,30.38,30.29,30.20,10,10,5,14,8,21,0.05,2,,177
2013-8-11,80,71,62,64,59,54,88,70,48,30.32,30.25,30.18,10,10,7,23,10,28,0.70,3,Thunderstorm,215
2013-8-12,84,75,66,64,62,59,88,69,48,30.25,30.20,30.13,10,10,9,20,6,28,0.02,2,Thunderstorm,188
2013-8-13,87,74,62,64,60,54,88,68,35,30.25,30.19,30.11,10,10,5,29,9,36,0.12,2,Thunderstorm,110
2013-8-14,80,72,64,66,62,57,88,73,54,30.28,30.22,30.14,10,10,5,16,8,24,0.07,3,,134
2013-8-15,86,74,62,64,61,57,88,70,45,30.25,30.19,30.11,10,10,8,20,10,25,0.25,2,Thunderstorm,207
2013-8-16,84,75,66,64,62,57,83,66,47,30.24,30.18,30.15,10,10,10,20,9,25,0.00,0,,179
2013-8-17,87,74,60,63,60,57,88,65,40,30.25,30.18,30.09,10,10,8,18,9,22,0.00,0,,172
2013-8-18,91,76,60,61,57,54,82,58,31,30.19,30.15,30.08,10,10,10,14,9,17,0.00,0,,177
2013-8-19,93,76,60,61,56,54,82,53,28,30.18,30.12,30.05,10,10,5,12,6,16,0.00,0,,181
2013-8-20,91,76,60,59,55,52,77,50,29,30.17,30.11,30.07,10,10,10,18,5,23,0.00,0,,176
2013-8-21,89,74,60,57,54,48,77,50,27,30.23,30.18,30.13,10,10,10,17,9,23,0.00,0,,165
2013-8-22,89,73,57,55,49,37,77,46,17,30.24,30.19,30.11,10,10,5,15,8,20,0.00,0,,201
2013-8-23,91,76,62,61,55,54,72,51,29,30.21,30.16,30.10,10,10,8,20,8,24,0.01,1,Thunderstorm,190
2013-8-24,89,76,62,61,57,54,83,56,33,30.26,30.21,30.16,10,10,9,21,7,31,0.00,1,,177
2013-8-25,89,74,60,59,56,54,77,52,31,30.33,30.27,30.22,10,10,8,16,8,21,0.00,1,,150
2013-8-26,87,74,62,61,56,54,77,54,33,30.33,30.28,30.21,10,10,4,16,9,21,0.00,1,,159
2013-8-27,87,74,60,61,54,52,77,54,29,30.26,30.21,30.14,10,10,10,16,7,21,0.00,0,,179
2013-8-28,87,74,60,61,56,52,77,55,31,30.23,30.19,30.16,10,10,6,17,8,26,0.00,0,,186
2013-8-29,93,78,62,61,55,52,68,48,29,30.26,30.21,30.15,10,10,9,16,9,24,0.00,1,,215
2013-8-30,95,80,64,59,54,52,64,42,24,30.21,30.15,30.08,10,10,7,14,9,21,0.00,0,,215
2013-8-31,96,81,66,55,50,46,53,37,20,30.13,30.08,30.01,10,10,6,16,9,20,0.00,0,,198